[[{"header":{"parameterUnit":"m.s-1","parameterCategory":1,"la1":30.2991,"la2":30.254,"lo1":-89.0895,"lo2":-89.0444,"dy":0.0017,"dx":0.0017,"nx":28,"ny":28,"refTime":"2025-07-30T03:00:00:Z","depth":0,"parameterNumber":2,"parameterNumberName":"U-component_of_WINDS"},"data":[0,0,0,0,0,0,0,0,0,0,0,0,0,0,0,0,0,0,0,0,0,0,0,0,0,0,0,0,0,0,0,0,0,0,0,0,0,0,0,0,0,0,0,0,0,0,0,0,0,0,0,0,0,0,0,0,0,0,1.9628,1.9628,0,1.9661,1.9662,1.9662,1.9651,1.9651,1.965,1.9649,1.9682,1.9683,1.9685,0,0,0,0,0,0,0,0,0,0,0,0,0,1.9552,1.9554,1.9628,1.9628,1.9628,1.9661,1.9662,1.9662,1.9652,1.9651,1.965,1.9649,1.9681,1.9683,1.9685,0,0,0,0,0,0,0,0,0,0,0,0,0,1.9586,1.9554,1.9627,1.9627,1.9627,1.9661,1.9662,1.9662,1.9652,1.9651,1.965,1.9649,1.9681,1.9683,1.9685,1.9721,0,0,1.9692,1.9693,0,0,0,0,0,0,0,0,1.9584,1.9588,1.9627,1.9627,1.9628,1.9651,1.9647,1.9682,1.9652,1.9642,1.9649,1.9648,1.9672,1.9675,1.9684,1.9722,1.9724,1.9693,1.9694,1.9695,1.9696,0,0,0,0,0,0,0,1.9581,1.9587,1.9641,1.9627,1.9628,1.9625,1.9628,1.9654,1.9663,1.9643,1.9643,1.9647,1.9672,1.9682,1.9685,1.9724,1.9692,1.9694,1.9696,1.9697,1.9795,1.9796,0,0,0,0,0,0,1.9579,1.9585,1.964,1.9642,1.9603,1.9627,1.9631,1.9645,1.9663,1.9664,1.9648,1.9646,1.9678,1.9682,1.9686,1.9729,1.9695,1.9697,1.9698,1.9793,1.9795,1.9796,0,0,0,0,0,0,1.9577,1.9584,1.9638,1.9613,1.962,1.963,1.9645,1.9646,1.9655,1.9666,1.9667,1.9656,1.9678,1.9682,1.9713,1.973,1.9698,1.97,1.9792,1.9794,1.9796,1.9816,0,0,0,0,0,0,1.9575,1.9584,1.9597,1.9614,1.9621,1.9665,1.9646,1.9647,1.9659,1.9658,1.9674,1.9675,1.9677,1.9709,1.9715,1.9733,1.9702,1.979,1.9793,1.9795,1.9813,1.9818,1.9822,0,0,0,0,0,1.9573,1.9601,1.9598,1.9605,1.9639,1.9666,1.967,1.9672,1.9661,1.9675,1.9682,1.9675,1.9727,1.9712,1.9719,1.9737,1.9789,1.9792,1.9795,1.9811,1.9817,1.9822,0,0,0,0,0,0,1.9585,1.9603,1.96,1.9634,1.9649,1.9664,1.9682,1.9678,1.9695,1.9693,1.9694,1.9698,1.9729,1.9736,1.9719,1.9773,1.9757,1.9761,1.9767,1.9772,1.9776,1.9774,1.9704,0,0,0,0,0,1.9592,1.9613,1.9627,1.9656,1.9664,1.9672,1.9684,1.9684,1.9699,1.9705,1.9714,1.9728,1.9748,1.9761,1.9779,1.9815,1.9818,1.9831,1.9835,1.9838,1.9841,1.9861,1.9867,1.9805,1.9805,1.9805,0,0,1.9606,1.9619,1.9632,1.9659,1.9671,1.9692,1.9677,1.97,1.9716,1.9708,1.9737,1.9745,1.9761,1.9794,1.9809,1.9801,1.986,1.9842,1.9844,1.9846,1.9865,1.9871,1.9876,1.9807,1.9807,1.9806,0,0,1.9643,1.9655,1.968,1.9692,1.971,1.9715,1.9722,1.9738,1.9743,1.9773,1.9767,1.9786,1.982,1.9832,1.9842,1.9885,1.9879,1.9891,1.9913,1.9932,1.9937,1.9941,1.9956,1.9962,1.9895,1.9895,1.9895,0,1.9658,1.9691,1.9694,1.9718,1.973,1.9726,1.9752,1.9763,1.9786,1.9794,1.9785,1.9828,1.9839,1.9875,1.9885,1.9894,1.9901,1.9889,1.9936,1.994,1.9944,1.9959,1.9965,1.9896,1.9896,1.9896,1.9896,0,1.9708,1.9731,1.975,1.9773,1.9788,1.9813,1.9819,1.9834,1.9834,1.984,1.987,1.9883,1.9904,1.9913,1.9912,1.9949,1.9944,1.9936,1.9919,1.9951,1.9965,1.9971,1.9898,1.9897,1.9897,1.9897,0,0,1.9752,1.9778,1.9785,1.9796,1.9816,1.9833,1.9859,1.9881,1.9893,1.9909,1.993,1.996,1.9952,1.9964,1.9965,1.9982,2.0016,1.9972,1.9972,1.9979,2.0057,2.0063,2.007,2.0013,2.0014,2.0015,2.0056,0,1.979,1.9835,1.9839,1.9879,1.99,1.9897,1.9919,1.9933,1.994,1.9959,1.9966,1.9987,1.9976,1.9983,2.0,2.0008,2.0031,2.0005,2.0031,2.0032,2.0027,2.0077,2.0083,2.0121,2.0061,2.0062,2.0063,0,1.984,1.986,1.9902,1.992,1.9929,1.9949,1.997,1.9988,2.0005,2.0008,2.0023,2.0022,2.0047,2.0031,2.0066,2.0048,2.0059,2.0065,2.0066,2.0068,2.0049,2.0079,2.0133,2.0139,2.0071,2.0071,2.007,0,1.9868,1.9904,1.9935,1.9944,1.9966,1.998,1.9989,2.0005,2.0019,2.0037,2.0046,2.0066,2.0078,2.0094,2.0098,2.0086,2.0134,2.0117,2.0137,2.0137,2.0147,2.0146,2.0202,2.0155,2.0155,2.0155,2.0155,0,1.991,1.9936,1.9947,1.9966,1.9995,2.0,2.0028,2.0037,2.0052,2.0072,2.007,2.0088,2.0094,2.0114,2.0117,2.0146,2.0151,2.0155,2.0155,2.0155,2.0154,2.0161,2.0158,2.0156,2.0156,2.0156,2.0155,0,1.9945,1.9954,1.9987,2.0006,2.0011,2.0032,2.0047,2.0065,2.0072,2.0098,2.0104,2.0115,2.0138,2.0145,2.0172,2.0175,2.0209,2.0207,2.0203,2.0203,2.0222,2.022,2.0285,2.0294,2.0241,2.0242,2.0242,0,1.9971,1.9991,2.0013,2.0026,2.0037,2.0059,2.0073,2.0079,2.0094,2.0115,2.013,2.0153,2.0172,2.0209,2.0219,2.0241,2.0239,2.0261,2.0242,2.0241,2.0239,2.0238,2.024,2.0264,2.0264,2.0265,2.0265,0,2.0016,2.002,2.004,2.0063,2.008,2.0098,2.0115,2.0126,2.0135,2.0151,2.0175,2.019,2.0219,2.0242,2.0264,2.0273,2.0271,2.0271,2.0277,2.0276,2.0272,2.0274,2.0212,2.0269,2.0269,2.0268,2.0268,2.0268,2.0047,2.0065,2.0083,2.0107,2.0121,2.0137,2.0155,2.0165,2.0185,2.021,2.0212,2.0239,2.0256,2.0285,2.0296,2.0316,2.031,2.0318,2.032,2.0322,2.0323,2.027,2.032,2.032,2.032,2.032,2.032,0,2.0092,2.0104,2.0125,2.015,2.0168,2.0166,2.0185,2.02,2.0223,2.024,2.0259,2.0287,2.031,2.0323,2.0345,2.0359,2.0358,2.0365,2.0363,2.0366,2.0328,2.0321,2.0365,2.0365,2.0365,2.0365,2.0365,2.0365,2.0117,2.0147,2.0154,2.0191,2.0203,2.0229,2.024,2.0255,2.0269,2.0301,2.032,2.0328,2.0343,2.0367,2.0388,2.0391,2.0399,2.0406,2.0409,2.0373,2.0368,2.0364,2.0357,2.0408,2.0408,2.0445,2.0445,2.0445]},{"header":{"parameterUnit":"m.s-1","parameterCategory":1,"la1":30.2991,"la2":30.254,"lo1":-89.0895,"lo2":-89.0444,"dy":0.0017,"dx":0.0017,"nx":28,"ny":28,"refTime":"2025-07-30T03:00:00:Z","depth":0,"parameterNumber":3,"parameterNumberName":"V-component_of_WINDS"},"data":[0,0,0,0,0,0,0,0,0,0,0,0,0,0,0,0,0,0,0,0,0,0,0,0,0,0,0,0,0,0,0,0,0,0,0,0,0,0,0,0,0,0,0,0,0,0,0,0,0,0,0,0,0,0,0,0,0,0,-2.5815,-2.5816,0,-2.5895,-2.5896,-2.5897,-2.5885,-2.5884,-2.5883,-2.5881,-2.5959,-2.5962,-2.5965,0,0,0,0,0,0,0,0,0,0,0,0,0,-2.5648,-2.5651,-2.5815,-2.5816,-2.5817,-2.5895,-2.5896,-2.5897,-2.5885,-2.5884,-2.5882,-2.5881,-2.5957,-2.5961,-2.5965,0,0,0,0,0,0,0,0,0,0,0,0,0,-2.5723,-2.5652,-2.5815,-2.5821,-2.5822,-2.5894,-2.5896,-2.5897,-2.5886,-2.5884,-2.5882,-2.588,-2.5956,-2.5961,-2.5966,-2.6036,0,0,-2.5981,-2.5983,0,0,0,0,0,0,0,0,-2.5719,-2.573,-2.5819,-2.582,-2.5822,-2.5878,-2.5865,-2.5944,-2.5886,-2.5861,-2.5881,-2.5879,-2.5933,-2.594,-2.5959,-2.604,-2.6043,-2.5981,-2.5984,-2.5986,-2.5988,0,0,0,0,0,0,0,-2.5714,-2.5726,-2.5846,-2.582,-2.5822,-2.5818,-2.5827,-2.588,-2.5907,-2.5863,-2.5863,-2.5873,-2.5933,-2.5954,-2.5961,-2.6044,-2.5981,-2.5986,-2.5989,-2.5991,-2.6187,-2.6189,0,0,0,0,0,0,-2.5708,-2.5722,-2.5844,-2.5849,-2.5765,-2.5823,-2.5832,-2.5862,-2.5907,-2.5912,-2.5874,-2.5872,-2.5947,-2.5955,-2.5963,-2.6049,-2.5986,-2.5991,-2.5994,-2.6184,-2.6187,-2.6189,0,0,0,0,0,0,-2.5704,-2.5719,-2.584,-2.5785,-2.58,-2.5828,-2.5861,-2.5865,-2.5885,-2.5915,-2.5919,-2.5891,-2.5946,-2.5956,-2.6018,-2.6051,-2.5993,-2.5998,-2.6182,-2.6185,-2.6188,-2.622,0,0,0,0,0,0,-2.57,-2.5718,-2.5745,-2.5786,-2.5803,-2.5895,-2.5863,-2.5868,-2.5895,-2.5892,-2.5932,-2.5936,-2.5945,-2.6011,-2.6023,-2.6057,-2.6002,-2.6179,-2.6183,-2.6187,-2.6216,-2.6224,-2.623,0,0,0,0,0,-2.5694,-2.575,-2.5747,-2.5762,-2.5839,-2.5897,-2.5907,-2.5918,-2.5897,-2.5925,-2.5944,-2.5935,-2.6046,-2.6018,-2.6031,-2.6067,-2.6177,-2.6182,-2.6187,-2.6212,-2.6222,-2.623,0,0,0,0,0,0,-2.571,-2.5755,-2.5752,-2.5824,-2.5857,-2.5895,-2.593,-2.5927,-2.5966,-2.5962,-2.5971,-2.598,-2.6043,-2.6061,-2.6029,-2.6137,-2.6108,-2.6116,-2.6123,-2.6133,-2.614,-2.6134,-2.6006,0,0,0,0,0,-2.5723,-2.5768,-2.5804,-2.5863,-2.5881,-2.5903,-2.5929,-2.5934,-2.5968,-2.5982,-2.6005,-2.6038,-2.608,-2.6107,-2.6148,-2.6219,-2.6227,-2.625,-2.6257,-2.6263,-2.6269,-2.6308,-2.6319,-2.6206,-2.6206,-2.6206,0,0,-2.5748,-2.5778,-2.5805,-2.5868,-2.5894,-2.5939,-2.5915,-2.5963,-2.5997,-2.5988,-2.6049,-2.6068,-2.6104,-2.6171,-2.6202,-2.6188,-2.6303,-2.6269,-2.6274,-2.6277,-2.6315,-2.6325,-2.6335,-2.621,-2.6209,-2.6208,0,0,-2.5817,-2.5845,-2.5897,-2.5925,-2.5966,-2.5981,-2.5994,-2.6033,-2.6046,-2.6107,-2.6102,-2.6141,-2.6214,-2.624,-2.6263,-2.6344,-2.6337,-2.6357,-2.6395,-2.6433,-2.6442,-2.6449,-2.6478,-2.6488,-2.6364,-2.6364,-2.6364,0,-2.5842,-2.5912,-2.5924,-2.5975,-2.6002,-2.5999,-2.6052,-2.6077,-2.6129,-2.6147,-2.6132,-2.6223,-2.6248,-2.6321,-2.6341,-2.636,-2.6374,-2.6352,-2.644,-2.6448,-2.6455,-2.6483,-2.6493,-2.6366,-2.6365,-2.6365,-2.6365,0,-2.5942,-2.599,-2.6027,-2.608,-2.6111,-2.6162,-2.6181,-2.6211,-2.6214,-2.623,-2.6293,-2.6322,-2.6369,-2.6387,-2.6389,-2.6461,-2.6451,-2.6438,-2.6409,-2.6468,-2.6494,-2.6504,-2.6369,-2.6368,-2.6367,-2.6367,0,0,-2.6022,-2.6082,-2.6095,-2.6119,-2.6165,-2.6202,-2.6253,-2.6301,-2.6326,-2.6362,-2.6404,-2.6467,-2.6455,-2.6481,-2.6487,-2.652,-2.6582,-2.6502,-2.6503,-2.6516,-2.6662,-2.6672,-2.6684,-2.6578,-2.658,-2.6582,-2.6659,0,-2.6095,-2.6187,-2.62,-2.6281,-2.6326,-2.6324,-2.6368,-2.64,-2.6417,-2.6456,-2.6474,-2.6518,-2.6499,-2.6515,-2.6548,-2.6568,-2.6612,-2.6562,-2.6617,-2.6618,-2.6607,-2.6698,-2.6708,-2.6779,-2.6669,-2.6671,-2.6672,0,-2.6193,-2.6234,-2.6319,-2.636,-2.6379,-2.6419,-2.6464,-2.6502,-2.6539,-2.6548,-2.6579,-2.658,-2.6632,-2.6602,-2.6673,-2.6639,-2.6662,-2.6675,-2.6678,-2.6683,-2.6648,-2.6704,-2.6802,-2.6813,-2.6689,-2.6687,-2.6686,0,-2.6243,-2.6319,-2.638,-2.6401,-2.645,-2.6478,-2.6499,-2.6534,-2.6562,-2.6601,-2.6619,-2.6663,-2.6687,-2.672,-2.6733,-2.671,-2.6803,-2.6774,-2.6812,-2.6812,-2.6831,-2.6829,-2.6933,-2.6847,-2.6847,-2.6846,-2.6846,0,-2.6323,-2.6375,-2.6404,-2.6441,-2.65,-2.6514,-2.6571,-2.6591,-2.6623,-2.6663,-2.6664,-2.6702,-2.6717,-2.6757,-2.6768,-2.6825,-2.6835,-2.6844,-2.6846,-2.6844,-2.6843,-2.6858,-2.6853,-2.6849,-2.6849,-2.6848,-2.6848,0,-2.6388,-2.6409,-2.6476,-2.6518,-2.653,-2.6571,-2.6606,-2.6642,-2.6659,-2.671,-2.6723,-2.6749,-2.6796,-2.6813,-2.687,-2.6877,-2.6944,-2.6942,-2.6932,-2.6932,-2.6969,-2.6965,-2.7086,-2.7103,-2.7006,-2.7006,-2.7007,0,-2.6437,-2.6478,-2.6525,-2.6553,-2.6576,-2.6621,-2.6651,-2.6666,-2.6696,-2.6742,-2.6772,-2.682,-2.6859,-2.6934,-2.6957,-2.7001,-2.7,-2.7039,-2.7006,-2.7003,-2.7,-2.6997,-2.7001,-2.7045,-2.7046,-2.7047,-2.7047,0,-2.6523,-2.6532,-2.6575,-2.6622,-2.6657,-2.6695,-2.6731,-2.6753,-2.6774,-2.6808,-2.6858,-2.6888,-2.6947,-2.6994,-2.7039,-2.706,-2.7057,-2.7058,-2.7069,-2.7067,-2.7059,-2.7064,-2.6948,-2.7055,-2.7054,-2.7054,-2.7053,-2.7053,-2.6581,-2.6617,-2.6657,-2.6705,-2.6734,-2.6768,-2.6804,-2.6827,-2.6869,-2.692,-2.6926,-2.6979,-2.7015,-2.7076,-2.7099,-2.7139,-2.7128,-2.7144,-2.7148,-2.7152,-2.7155,-2.7054,-2.7148,-2.7147,-2.7147,-2.7147,-2.7147,0,-2.6666,-2.6692,-2.6736,-2.6788,-2.6826,-2.6822,-2.6862,-2.6893,-2.6941,-2.6976,-2.7015,-2.7071,-2.7117,-2.7145,-2.7191,-2.7218,-2.7218,-2.723,-2.7227,-2.7232,-2.7162,-2.7148,-2.7229,-2.7229,-2.7229,-2.7229,-2.7229,-2.7229,-2.6715,-2.6777,-2.679,-2.6866,-2.6891,-2.6945,-2.6968,-2.6999,-2.7027,-2.7091,-2.713,-2.7149,-2.718,-2.7229,-2.727,-2.7277,-2.7294,-2.7306,-2.7312,-2.7246,-2.7237,-2.7229,-2.7216,-2.731,-2.731,-2.7379,-2.738,-2.738]}]]